logo

  • home
  • head
  • itnews
  • product
  • mobile
  • game
  • benchmark
  • analysis
  • blog

액션, 드라마 / 한국 / 116분 / 2020 .07.15 개봉 감독 : 연상호 출연 : 강동원, 이정현 [국내] 15세 관람가 ...
드라마, 액션 / 한국 / 132분 / 2020 .07.29 개봉 감독 : 양우석 출연 : 정우성, 곽도원, 유연석 [국내] 15세 관...

AMD 코리아가 국내 쿨엔조이 커뮤니티에서 불법 바이럴 마케팅으로 결국 영구퇴출 당했다. 이하 쿨엔조이 공지 전문


------------------------------------------------


AMD 브랜드 관련 바이럴 마케팅 2차 결과 공지

 

 

 

지난 'AMD 브랜드 관련 바이럴 마케팅 1차 결과 공지 [링크]'에 이어 이번에 2차 공지를 안내드립니다.


첫 번째 공지가 올라가기 전 쿨엔조이 운영팀은 해당 문제와 관련하여 AMD CPU 관련 社 (이하 AMD)와 미팅을 통해서도 공개 사과 및 해명을 요청하였으나 아직 그렇다 할 명확한 해명글이 올라오지 않은 상황입니다.

 

운영팀은 선 행위로 공개 사과글 및 해명글 오픈 여부를 떠나 이러한 바이럴 행위에 대해 사이트 전체에 해를 끼친 행위로 해당 스폰서 계정을 무기한 임시 제재를 취한 바 있습니다. 현재 쿨엔조이 회원님, 운영진, 타사 스폰서 등은 AMD를 통해 사이트 전체에 직 간접적인 피해를 보고 있는 상황입니다.

 

쿨엔조이 운영팀이 'AMD' 측에 요청한 부분은 '쿨엔조이 회원에게 공식적인 사과글과 해명글'이었습니다. 하지만 요청 이후 일정 기간에도 요청 사항을 이행하지 않았기 때문에 운영진 측에서 그간 과거의 기록 자료들을 모두 수집하고 해당 공지와 관련하여 대응할 수 있도록 준비하는 기간이 필요했습니다. 결국 AMD 측에서 애초 요청한 진정된 사과문에 대한 요청을 거부한 상태로 간주합니다.

 

현재 지속적으로 바이럴 계정이 파악하면 할수록 계속 나오는 것으로 파악됩니다. 도무지 어디가 진실이며 어디가 허구인지 운영팀조차 파악이 어려울 지경에 이르렀습니다. 하지만 시간이 얼마나 걸리든 쿨엔조이 운영팀은 바이럴 마케팅 근절을 위한 추적에 앞장서며, 끝까지 찾아 처리할 수 있도록 하겠습니다.

 


이에 따라서 쿨엔조이 운영팀은 내부 회의를 통해 다음과 같이 결정합니다.


1. 쿨엔조이 회원님을 대신하여 쿨엔조이 운영팀은  'AMD 코리아'에 불법 바이럴 광고와 관련하여, '공식 사과글 및 명확한 해명을 요청'하였음에도 수긍할 수 있을 만한, 그 어떤 답변도 받지 못했습니다. 이는 명백히 쿨엔조이 유저를 통해 앞으로도 '불법 바이럴 행위'를 계속 하겠다는 의지를 보여준  것으로 밖에 판단할 수 없습니다. 쿨엔조이 운영팀은 'AMD 코리아'가 바이럴 행위 근절에 대한 의지가 없는 것으로 판단, AMD 코리아 및 관련 ID 모두 영구제명 시키고 어떠한 마케팅 활동을 금지합니다. 

 

2. 운영진은 CPU, MB, RAM 게시판 모니터링을 강화하여 바이럴 근절에 더욱 힘쓰도록 하겠습니다. 운영진이 미쳐 발견하지 못한 계정에 대해서는 건의함에 신고 주시면 적합한 절차에 따라 빠르게 처리하겠습니다. 참고로 현재 의심되는 불법 바이럴 계정은 1차 적발 시 경고, 그리고 2차 적발 시 바로 영구제명 처리하고 있습니다.

 


 

결과적으로 이번 AMD 브랜드 불법 바이럴 사건에 대해 회원 여러분들께 실망감 안겨드린 점 대단히 송구스럽게 생각합니다. 앞으로 운영진도 해당 계정을 발본색원하는데 더욱 힘쓰겠습니다. 거듭 실망감을 드려 죄송하며 이번 건을 통해 더욱 성숙하고 발전하는 쿨엔조이가 될 수 있도록 최선을 다하도록 하겠습니다. 감사합니다.


  • profile
    RAPTER_A.I 2020.06.23 01:51
    Humanity evolves, and we need to pioneer a new era
  • profile
    레오파드 2020.06.23 01:56
    다나와 / 루리웹 여기 2군데가 amd 바이럴의 본고장으로 심한거 같은데 여기는 조치 안할까요. 아무튼 amd가 왜 이렇게 망가졌는지도 궁금하군요
  • ?
    방화벽 2020.06.23 02:25
    다나와는 amd와 일심동체일까여 ㅋㅋ 상품의견란 보니까 그냥 방치하는거 같기도 하고
  • ?
    사마귀 2020.06.25 21:46
    악의 축 amd를 한국에서 몰아내야 합니다






List of Articles
번호 제목 날짜 조회 수
공지 AMD 젠 아키텍처 분석 (프론트엔드, OP캐시, CCX, 인피니... 6 2017.07.23 42983
1590 '편히 잠들길'..박원순 분향소, 조문객 4000명 육박 1 2020.07.11 36
1589 <뉴스와 시각>KBS 혁신? 수신료 꼼수! 3 2020.07.11 38
1588 박원순시장 비서 사진 유포에 와룡공원 방송까지 3 2020.07.11 58
1587 "박원순 시장 실종" 딸이 신고..3시간째 소재 미확인 1 2020.07.09 26
1586 글로벌 문화대통령 - BTS (방탄소년단) 'Stay Gold' Offic... 1 2020.07.09 79
1585 경주시의회, 최숙현 사망 진상조사와 재발방지 촉구 1 2020.07.09 45
1584 윤석열, 추미애 지휘 수용.."중앙지검이 채널A사건 수사" 3 2020.07.09 69
1583 "21세기 비틀스" BTS 매력에 빠진 日 1 2020.07.08 74
1582 최숙현 폭행 의혹 선수 "나도 때렸고, 감독·주장도 때렸다" 1 2020.07.08 35
1581 웹젠 '뮤 아크엔젤' 장기흥행 청신호 1 2020.07.08 55
1580 박상기·조국까지..전직 법무장관들도 윤석열 저격 가세 1 2020.07.04 128
1579 황희석 "윤석열 가족 행각에..자존감마저 탈탈 털어버릴 ... 1 2020.07.04 106
1578 전용차 버리고 지하철 타는 의원님 "지하철에 왜 이렇게.." 1 2020.07.04 101
1577 뒷돈 챙긴 국민연금 직원..여행·골프·월세 '수법도 다양' 1 2020.07.04 106
1576 국정원장 내정 박지원 "대통령 위해 충성할 것" 1 2020.07.03 77
1575 박지원 국정원장 '깜짝 발탁'..통일부장관에 이인영 1 2020.07.03 61
1574 양승동 KBS 사장 "수신료 올리고, 직원 1000명 줄이겠다" 1 2020.07.02 37
1573 '음주운전' 종근당 회장 아들 "부끄럽다"..징역 2년 구형 1 2020.07.02 53
1572 中격투기 부대에 인도는 킬러부대 반격..살벌한 국경난투극 1 2020.07.02 28
1571 추미애 "자문단 중단하고 수사결과만 보고받아라" 윤석열... 1 2020.07.02 20
1570 추미애, 윤석열에 최후통첩.."자꾸 반대로 해, 결단한다" 3 2020.07.01 108
1569 [이래도 되나요] '80억대 아파트·람보르기니' 뽐낸 대학생... 2 2020.06.27 104
1568 '공수처 설립방향' 공청회.."수사-기소 분리해야" 1 2020.06.27 32
1567 秋, 윤석열 사실상 '불신임'…'최측근 감찰' 초강수까지 2 2020.06.27 94
1566 더 커진 청년 분노, 노노갈등…무원칙이 키운 ‘인국공 파문’ 1 2020.06.27 140
1565 '황제 복무' 부대서 성추행 의혹.."뒷조사 해놨다며 협박도" 1 2020.06.25 85
1564 역대 스타리그 오프닝 TOP 10 1 2020.06.25 109
1563 스타크래프트 1인 46역 성대모사!ㅣStarcraft 46 voice Vo... 1 2020.06.25 132
» AMD 코리아, 국내 "쿨엔조이" 커뮤니티에서 영구퇴출 4 2020.06.23 117
1561 위기의 윤석열..'안팎갈등·사퇴압박·7월인사' 삼각파고 1 2020.06.22 159
1560 주식용 컴퓨터에 AMD를 쓰면 안되는 이유? 1 2020.06.22 62
1559 구글 어스에 찍힌 소름끼치는 것들 1 2020.06.21 162
1558 AMD 바이럴 마케팅 또 발각,, 네티즌 분노 4 2020.06.20 89
1557 병협 이어 노조도 "공공의대·의대 증원 필요"‥의협 입지는? 2 2020.06.19 102
1556 한의협, “원격의료, 포스트 코로나서 필수불가결” 1 2020.06.19 51
1555 여의도 나이스그룹 사옥서 코로나19 확진자 발생 3 2020.06.17 43
1554 "아빠한테 말하면 안되는 것 없어"…'아들 황제복무' 최영 ... 1 2020.06.17 141
1553 '황제 대령'도?…"공군 법무실장, 180번 근무지 이탈" 폭로 2 2020.06.16 37
1552 공군감찰·청와대 청원대상 황제병사는 지금 '휴가중' 3 2020.06.16 53
1551 '황제 복무' 나이스그룹 부회장 아들, 이번엔 '황제 조사'... 1 2020.06.16 108
1550 '신용 잃은 신평사' 제재… 나이스·서울신용평가 '기관 주의' 2 2020.06.16 33
1549 '황제 복무' 논란 공군 부대, 대대장 '갑질·폭언' 의혹도 2 2020.06.14 71
1548 나이스그룹 부회장 아들, 1인 생활관 등 '황제복무' 논란 5 2020.06.13 116
1547 AMD 라이젠 CPU, 사용중 프리징 문제에 노출? 2 2020.06.13 249
1546 C&C 리마스터 정식 출시 - 새로운 전성기 1 2020.06.13 105
1545 근로자 사망했는데 한국경제 "[단독] 팰리세이드 생산 위기" 1 2020.06.13 90
1544 공군 '황제 병사'…1인실 이용 등 일부 의혹 확인 1 2020.06.13 103
1543 "검은사막에서 열애, 그라나궁전에서 결혼"…코로나19로 '... 1 2020.06.13 108
1542 남편은 집주인, 아내는 세입자..부동산판 또다른 '부부의 ... 1 2020.06.13 67
1541 미 해양대기청 "올여름 평년보다 덥다"..지구온난화가 폭... 1 2020.06.11 61
1540 '비선실세' 최서원, 징역 18년·벌금 200억원 확정 1 2020.06.11 117
1539 'V4 흥행' 넥슨, 1분기 매출 9045억…국내 매출 78%↑ 1 2020.06.11 48
1538 `모바일 카트라이더` 북미서도 질주 1 2020.06.11 122
1537 병원협회, 의료계 최초로 “비대면 진료 찬성” 3 2020.06.05 37
1536 의사 모자란데 의협은 원격의료도, 의대 정원 확대도 '무... 3 2020.06.03 100
1535 31년 만에… 의대 정원 500명 이상 늘린다 2 2020.05.30 87
1534 국민들 여론, 원격 진료/의료 대부분 "찬성" 1 2020.05.29 147
1533 채수찬 KAIST 부총장 "원격의료, 의료민영화로 의심하면 ... 1 2020.05.27 74
1532 '그알' 존경받던 가톨릭 사제의 동성 성추행, 뒤늦게 밝혀... 1 2020.05.18 96
1531 문체부 장관 만난 게임업계 대표들 "주52시간제 탄력 운영... 1 2020.05.15 113
1530 이낙연, 차기 지도자 선호도 28% 최고치 경신..황교안 1% 2 2020.05.15 132
1529 이태원 클럽발 확진자 90명 육박..3천명 연락불통 1 2020.05.11 97
1528 이태원 클럽, '제2의 신천지' 되나.. 긴장한 정부 '수도권... 1 2020.05.09 181
1527 이태원 클럽 접촉자만 1,500명..행적 추적도 어렵다 1 2020.05.08 166
1526 용인 확진자 직장 '티맥스소프트', '재택근무'도 '전수조... 4 2020.05.08 128
1525 이태원 클럽 집단감염 신천지처럼 안되려면..역학조사 속... 1 2020.05.08 43
1524 코로나19 생활 속 거리두기 기본지침 개인방역 1 2020.05.06 70
1523 배틀그라운드 운영정책 개정 안내 2020.05.06 113
1522 [로스트아크] 5월 6일(수) 업데이트 내역 안내 1 2020.05.06 69
1521 Xbox 시리즈 X 저가형 기기 록하트, 정말 나오는 건가? 1 2020.05.06 74
1520 BTS가 뜨면 유통·물류 판도 움직인다 1 2020.05.06 102
1519 이재용 삼성 '4세 경영' 포기..82년 '무노조 경영' 종식 ... 1 2020.05.06 49
1518 톰 크루즈, 사상 최초로 우주정거장에서 영화 찍는다 1 2020.05.06 80
1517 [PUBG] 콘솔 패치노트 7.1 요약 1 2020.04.24 56
1516 [로스트아크] 4월 22일(수) 업데이트 내역 안내 1 2020.04.24 93
1515 [넥슨 V4] 어쌔신 인게임 플레이 영상 1 2020.04.24 52
1514 [음악감상] 펭수 - 펭수로 하겠습니다(펭수&타이거JK&비지... 1 2020.04.23 311
1513 코로나19 치료제·백신 개발 지원 정부 힘 모은다 1 2020.04.16 145
1512 '개표율 100%' 민주·더시민 180석..통합·미래한국 103석 확정 1 2020.04.16 47
1511 의료진 '피와 땀' 잊었나..수당 지급 '차일피일' 1 2020.04.08 80
1510 C&C 리마스터 컬렉션 공식 트레일러 1 2020.03.11 78
1509 [로스트아크] 3월 11일(수) 업데이트 내역 안내 1 2020.03.11 116
1508 [PUBG] 테스트 서버 - PC 1.0 버전 패치노트 #6.3 1 2020.03.11 54
1507 2월 29일 - 3월 13일, PC에서 오버워치를 무료로 체험하세요! 1 2020.02.29 54
1506 日 코로나19 검사 '하루 900건'..병원단체, '사태 악화' 경고 1 2020.02.28 71
1505 대륙으로 번진 '신천지 논란'..중국 정부, 신도 추적 1 2020.02.28 66
1504 코로나19에 올림픽 취소 위기감..아베 "전국 초중고 휴교"... 1 2020.02.28 63
1503 BTS Performs "ON" at Grand Central Terminal for The To... 1 2020.02.26 117
1502 비틀즈 이후 세계 최대 아티스트 BTS, 미국 NBC 투데이쇼 ... 1 2020.02.24 74
1501 [음악감상] BTS (방탄소년단) - Tomorrow 1 2020.02.24 253
1500 BTS 컴백에 맞춰 미국 팬들 노숙 시작 1 2020.02.21 97
1499 글로벌 문화대통령 BTS (방탄소년단) 'ON' Kinetic Manife... 3 2020.02.21 169
1498 CNN·BBC "韓 '대구 아웃브레이크'..세계확산 둔화 희망 무... 5 2020.02.21 105
1497 또 대구,, 전주서 28세 남성 코로나19 확진 1 2020.02.20 85
1496 군대 첫 확진자 발생..대구 휴가 다녀온 '제주 근무' 해군... 2 2020.02.20 69
1495 [속보] 코로나19 확진자 104명..청도대남병원서 국내 첫 ... 4 2020.02.20 57
1494 코로나19 환자 총 82명..대구·경북 30명·서울 1명 추가 확진 2 2020.02.20 29
1493 31번 접촉 15명 확진.. 대구·경북'슈퍼전파' 1 2020.02.20 93
1492 정부 "대구 봉쇄? 검토한 바 없다.. 상황 엄중함은 인식" 4 2020.02.19 166
1491 '코로나19' 집단발병지 된 대구..감염원 '미스터리' 1 2020.02.19 70
1490 글로벌 문화대통령 BTS(방탄소년단), 21일부터 본격 컴백 1 2020.02.17 93
1489 [PUBG] 테스트 서버 - PC 1.0 버전 패치노트 #6.2 1 2020.02.17 88
1488 [로스크아크] 밸런스 패치 등 2월 12일(수) 업데이트 내역... 1 2020.02.17 53
1487 세계 최대 게임 리그, 오버워치 리그 2020 시즌 본격 개막 1 2020.02.17 104
Board Pagination Prev 1 2 3 4 5 6 7 8 9 10 ... 16 Next
/ 16